Theta_e
288 288 288 290 289 289 289 289 288 287 289 288 285 286 286 286 283 280 286 287 285 288 290 291 291 291 291 292 294 296 297 299 299 298 298 299 299 300 299 299 300 299 300 301 302 304 305 308 309 309 309 312 317 320 324 326 327 330 331 331 331 332 332 331 331 333 334 335 336 336 336 337 337 338 340 341 340 340 338 337 337 337 336 336 335 334 334
288 289 290 291 289 290 290 289 289 289 289 288 288 287 288 287 286 287 287 287 286 290 291 292 292 293 293 294 296 297 297 298 299 299 298 298 299 300 300 300 300 300 300 302 303 304 305 305 309 311 311 309 311 317 321 323 326 327 328 329 334 336 334 333 333 335 336 337 337 338 338 338 339 340 341 341 341 340 339 338 338 337 337 336 336 335 334
286 288 288 290 289 289 287 288 289 289 289 289 288 288 288 289 288 288 287 286 286 292 294 293 293 293 294 294 294 295 296 298 299 299 299 299 299 300 300 301 300 300 301 302 303 303 304 305 308 311 311 312 313 311 314 321 324 325 326 326 325 327 334 337 336 337 338 338 339 339 339 339 340 341 341 342 341 341 340 338 338 337 337 336 335 335 335
284 288 287 286 288 290 288 286 287 288 287 285 286 284 287 285 284 285 286 284 284 289 292 293 293 293 293 292 294 295 297 298 299 299 299 299 300 300 301 302 302 302 302 301 302 303 304 305 307 310 312 314 314 314 315 314 321 325 324 325 326 328 330 336 339 339 339 339 340 340 340 340 340 341 341 341 341 341 340 339 338 337 336 336 336 335 335
283 287 287 286 286 286 283 284 287 289 289 290 289 291 291 289 287 284 282 283 288 290 292 290 291 292 292 294 295 297 298 299 300 300 300 301 301 301 302 303 303 303 302 302 302 303 304 305 306 309 313 313 314 313 315 317 317 320 324 326 327 326 329 332 336 339 339 339 339 340 340 341 341 341 340 340 340 340 340 340 339 337 336 336 336 336 335
283 286 285 285 282 277 279 289 293 292 289 289 286 286 289 291 290 286 287 287 290 291 291 290 290 292 293 295 298 301 301 301 301 302 302 302 302 303 303 304 303 303 303 303 303 304 304 305 307 310 313 313 313 313 316 318 318 318 319 322 325 327 330 334 333 335 339 339 338 339 340 340 340 340 340 340 340 341 340 340 339 338 337 337 337 336 336
283 283 282 276 275 277 288 291 293 294 293 293 290 290 292 292 292 290 290 290 291 293 293 294 294 295 296 298 300 300 302 302 303 303 303 303 302 302 303 303 303 303 303 302 303 303 304 305 307 311 313 314 313 313 315 317 317 316 317 318 321 324 326 328 331 329 326 326 330 336 339 339 339 339 339 339 339 340 340 340 339 338 337 336 337 336 336
280 278 276 271 274 282 286 291 292 295 295 294 291 289 292 293 292 294 290 290 293 294 294 295 296 295 296 299 301 300 301 302 303 303 304 304 304 303 304 304 303 302 303 303 305 307 309 310 311 311 312 314 314 314 314 314 315 315 316 316 318 320 322 323 325 323 323 322 322 322 324 329 335 338 338 339 338 339 339 339 339 339 338 337 336 336 337
278 277 277 276 284 283 285 285 287 290 288 290 287 283 287 294 295 294 293 293 294 294 295 295 295 295 295 294 294 299 301 301 304 304 305 306 306 305 306 307 308 309 308 309 309 309 309 310 310 311 312 314 314 315 314 313 313 314 315 316 316 318 320 321 321 322 322 322 324 324 324 323 325 329 333 337 338 339 338 338 338 338 338 337 337 336 336
282 279 274 274 272 270 277 284 291 294 294 294 294 290 286 295 295 297 295 294 294 294 295 295 295 294 291 287 289 295 300 302 303 303 305 306 306 307 309 309 309 310 310 310 310 310 310 311 312 313 313 314 313 314 314 314 312 313 314 314 315 316 318 320 323 324 324 323 323 323 324 325 327 328 328 331 336 338 337 337 337 337 338 337 337 336 335
278 278 277 277 272 272 279 286 290 294 295 294 294 288 284 293 296 297 297 295 296 295 295 295 295 290 286 286 289 296 300 301 303 302 303 304 305 306 307 310 310 310 310 310 311 312 311 312 314 315 315 315 315 315 315 315 315 315 315 315 316 316 317 318 320 323 326 327 325 324 325 326 328 328 328 328 329 334 338 338 337 338 336 336 336 337 336
278 278 276 273 275 278 284 289 291 294 295 294 291 280 281 292 296 297 297 295 296 296 296 297 294 290 284 286 291 298 301 301 303 301 301 302 304 305 306 307 310 310 310 310 310 310 311 313 315 316 316 316 315 315 316 315 315 315 316 317 317 318 318 319 319 320 321 323 326 326 326 326 327 329 329 329 330 329 333 337 337 337 335 335 335 335 336
278 278 275 274 277 283 286 289 292 294 296 293 282 278 285 295 297 298 298 297 298 298 297 297 292 295 295 296 298 301 301 300 302 301 301 301 303 304 305 305 306 311 311 310 310 310 312 314 315 314 314 314 314 315 315 315 315 316 318 318 318 317 317 317 318 319 320 322 324 326 327 327 327 327 328 328 328 329 329 333 336 336 335 335 334 335 335
278 275 276 274 276 285 290 292 293 296 291 282 280 290 297 297 297 298 298 298 299 299 298 298 298 299 300 300 301 300 299 299 302 301 300 301 302 304 305 305 305 308 312 311 311 311 312 313 314 313 312 311 312 314 314 315 316 318 319 319 319 319 317 317 318 319 319 320 325 326 326 327 326 327 328 329 329 328 329 329 333 335 334 333 334 334 334
278 274 272 272 270 282 290 292 289 293 285 285 293 296 297 298 298 297 298 299 299 300 298 300 300 300 300 300 300 300 299 299 301 300 299 299 300 302 303 303 304 306 307 306 307 308 309 310 311 311 310 309 311 312 313 314 317 318 319 319 319 319 319 319 319 320 321 321 321 327 328 326 325 326 328 328 328 328 327 328 328 330 333 333 332 332 332
280 278 273 274 279 286 290 291 284 290 292 295 297 297 295 297 298 298 298 299 299 300 299 299 300 301 300 300 300 301 300 301 301 301 300 300 301 302 303 303 303 304 305 305 305 306 307 307 308 309 309 309 309 309 310 313 313 314 316 318 319 319 318 318 317 317 319 320 322 324 326 329 328 327 327 328 328 328 327 328 328 327 331 332 332 331 331
282 280 281 285 288 290 292 292 292 293 295 295 296 295 295 295 297 299 298 298 299 300 300 300 300 299 301 300 301 300 300 301 301 301 301 300 300 301 302 302 302 303 303 303 303 304 305 305 306 308 309 308 308 307 309 310 310 311 312 315 317 318 319 319 318 318 318 318 319 320 323 326 327 328 328 323 321 320 320 321 321 322 326 329 330 330 330
290 294 293 292 291 292 292 292 293 293 294 295 295 295 295 296 297 300 299 299 299 299 301 300 299 299 300 300 300 300 301 301 302 303 303 302 301 301 301 301 301 301 301 301 301 301 303 304 305 306 308 308 307 308 310 309 310 311 312 314 316 318 319 320 319 318 318 318 319 319 320 323 325 327 327 322 323 322 322 321 322 322 321 322 324 327 329
288 285 293 290 291 291 290 291 293 293 293 294 295 295 295 296 298 299 300 300 299 299 300 300 299 299 299 299 299 300 300 301 301 302 302 301 300 300 299 300 300 300 300 299 299 300 300 302 304 305 306 307 308 309 310 310 310 311 312 314 315 317 318 318 316 316 317 319 319 319 318 320 322 322 322 322 321 320 321 322 321 321 321 320 320 322 326
283 282 289 291 292 292 292 292 291 292 293 295 295 295 296 297 298 298 299 300 299 300 299 300 299 299 299 298 298 299 299 300 301 301 301 301 300 300 300 300 299 299 298 298 298 299 299 301 303 304 306 306 308 309 310 311 310 311 313 314 316 316 314 311 310 312 315 308 314 319 318 319 319 318 318 321 321 320 320 321 321 320 321 319 319 322 325
287 289 288 289 289 289 290 291 292 293 293 294 295 295 295 296 297 297 299 299 299 299 299 299 299 298 298 298 298 298 298 299 299 300 301 301 299 299 298 298 298 297 297 297 297 298 298 300 302 303 304 305 307 308 310 310 310 314 313 310 313 312 309 307 307 304 307 308 312 316 318 317 315 312 319 321 322 322 324 324 325 323 322 322 321 324 326
276 281 285 289 283 282 288 291 292 293 294 294 294 294 295 295 296 297 297 297 299 299 299 299 299 298 298 298 298 297 298 298 299 299 300 300 298 298 298 298 297 296 297 296 296 297 297 299 301 302 302 303 305 307 309 310 310 312 313 314 314 314 314 313 311 309 309 309 310 312 311 312 310 308 296 292 297 312 319 311 307 309 311 321 324 326 326
279 284 289 290 289 288 290 292 293 293 294 294 293 293 294 295 296 296 296 296 298 298 298 300 299 298 298 298 298 297 298 298 298 298 298 298 297 297 297 296 295 295 295 296 296 295 297 298 300 301 301 302 303 305 308 310 309 309 310 310 310 311 310 310 307 312 312 312 312 313 312 310 309 307 308 307 297 291 293 301 305 302 301 303 305 309 320
288 290 290 290 290 289 291 293 293 293 294 294 293 294 294 295 295 296 295 296 296 296 297 298 299 298 298 298 298 297 297 297 297 297 297 297 297 296 296 295 294 293 293 294 294 294 296 297 298 300 300 301 302 304 307 309 308 308 308 307 307 308 309 309 308 308 313 313 313 314 315 314 312 310 311 310 310 299 292 291 291 294 296 300 302 301 301
289 292 292 292 292 292 293 293 293 293 294 295 294 294 294 295 296 296 295 295 296 296 296 296 298 298 298 298 298 297 297 296 297 296 296 295 295 295 294 294 293 292 292 293 293 294 295 296 297 298 298 299 301 303 305 307 307 305 306 306 306 306 307 307 308 306 308 310 310 312 312 312 312 311 311 309 309 309 305 295 293 293 292 291 291 294 302
292 292 293 293 293 293 292 292 292 293 293 293 292 293 295 298 298 296 294 294 295 295 295 295 296 297 298 297 297 297 297 295 295 295 294 293 294 294 293 293 292 292 292 292 292 292 293 294 295 296 297 298 299 301 304 305 305 304 303 304 305 304 304 307 307 307 308 308 308 309 310 310 310 309 308 308 309 308 308 307 307 301 296 292 292 294 292
294 294 291 290 289 290 290 290 289 291 292 293 292 292 293 294 296 295 294 295 295 295 295 295 296 297 297 297 297 296 296 295 294 294 293 292 292 292 293 293 292 291 291 291 291 290 290 292 292 293 295 297 298 300 302 303 303 302 302 301 302 299 295 299 306 306 306 306 307 307 307 307 307 307 307 306 306 306 306 304 302 301 301 300 294 291 292
293 292 291 287 287 288 290 291 292 292 292 292 292 292 293 293 293 293 293 293 293 294 294 295 295 296 295 296 295 295 296 294 292 292 291 290 291 292 292 291 291 290 290 289 289 289 289 289 290 290 291 295 297 298 300 301 301 300 300 299 299 299 301 304 306 306 305 305 304 304 305 306 305 304 303 303 304 304 302 302 303 302 300 299 297 293 293
293 292 292 291 290 290 291 291 291 291 291 292 293 292 292 291 291 291 291 292 292 293 293 294 295 296 295 294 294 293 294 293 291 290 290 290 290 290 290 290 290 289 289 288 288 288 288 288 288 288 290 293 296 297 298 299 299 299 299 298 297 296 297 300 305 305 305 304 303 302 297 300 302 303 303 302 301 303 302 302 300 301 300 299 300 300 297
291 291 292 291 291 291 290 289 289 290 290 291 291 291 291 290 290 290 291 291 291 291 293 294 295 294 293 292 293 292 292 292 291 290 289 288 288 289 289 289 288 288 287 287 286 286 286 286 287 287 289 292 295 296 297 297 297 298 298 298 296 294 294 296 299 302 303 303 302 296 300 301 302 301 301 301 301 300 299 298 297 298 298 297 295 297 296
291 291 292 292 291 290 290 290 289 290 290 290 290 290 290 290 289 290 290 290 291 291 292 293 294 293 293 292 293 293 292 292 291 289 288 287 287 287 287 287 286 284 284 285 285 285 285 285 286 286 288 292 294 295 296 296 296 296 296 296 296 291 289 289 291 296 298 298 298 300 300 301 300 298 296 298 299 299 299 298 297 297 296 297 297 296 296
290 291 292 290 289 289 289 288 289 289 289 289 290 289 289 289 288 289 290 290 290 291 292 292 293 293 292 292 292 292 291 290 289 287 286 286 285 285 285 286 286 285 285 284 284 284 284 284 284 285 288 290 293 294 294 295 295 294 294 292 294 293 291 289 293 293 293 294 295 296 296 298 300 298 297 297 298 298 298 297 297 296 297 296 295 295 294
288 287 287 287 288 287 287 287 288 288 288 289 288 288 289 289 289 289 290 291 291 290 291 292 293 293 292 291 290 290 289 289 288 287 285 284 284 284 284 284 285 285 284 284 284 284 283 283 283 285 287 289 292 293 293 294 294 293 293 293 293 292 290 289 289 292 292 292 293 294 295 294 296 299 298 296 296 295 297 297 296 297 297 297 297 296 294
288 286 286 287 287 286 287 287 287 287 288 289 288 289 289 289 290 290 289 290 290 290 290 291 293 294 291 289 289 288 287 286 285 285 284 284 284 284 285 285 284 284 284 284 284 283 283 284 284 284 286 288 290 291 292 293 293 292 292 292 291 291 291 291 290 291 290 290 291 292 293 293 294 294 294 296 297 296 295 295 294 296 297 298 298 297 294
289 288 290 290 289 290 290 289 288 288 288 287 288 288 288 289 290 290 288 288 288 289 291 291 291 292 291 288 287 287 286 285 285 285 285 284 284 284 284 284 284 283 283 283 283 282 283 283 284 284 286 288 289 290 290 291 292 292 292 291 291 290 290 289 290 289 289 290 290 290 290 291 291 290 292 293 294 295 295 294 295 295 296 296 297 298 296
292 291 291 291 291 291 290 290 290 289 289 287 288 288 288 289 290 290 289 288 289 289 289 289 289 289 290 288 286 286 286 286 287 286 286 285 285 284 284 283 282 282 281 281 283 283 283 283 283 283 285 286 288 289 289 289 291 291 291 291 290 290 289 289 289 289 289 289 289 289 289 288 289 289 290 291 291 292 293 293 293 293 293 293 294 295 296
293 292 291 291 290 290 290 290 290 289 289 288 288 287 288 288 289 289 289 289 288 287 287 288 288 287 287 288 288 287 287 287 286 286 286 286 284 283 282 282 281 281 280 280 282 283 283 283 283 283 285 285 286 287 287 286 289 290 290 290 289 289 288 288 288 288 288 288 288 288 288 288 288 289 288 289 289 289 290 291 290 291 291 291 291 291 292
292 292 291 290 290 290 290 290 290 290 288 288 288 288 289 289 288 288 288 287 287 286 286 287 287 286 287 289 288 286 285 285 285 285 284 284 284 282 281 281 280 280 280 280 283 283 283 283 283 284 284 284 285 286 286 285 286 289 289 289 289 288 288 287 287 287 287 287 287 287 287 287 287 287 287 288 288 287 287 288 288 289 289 289 289 289 289
291 291 291 291 291 290 290 290 290 289 288 287 287 287 288 288 288 287 286 286 286 286 286 286 286 286 286 286 286 287 286 284 284 284 283 283 283 282 281 281 281 281 282 283 283 283 283 283 284 284 284 284 285 286 285 285 286 287 288 288 288 288 287 287 286 286 286 286 286 286 286 286 286 286 286 286 286 286 286 286 286 287 287 287 287 287 287
291 290 290 290 290 289 290 289 289 288 288 288 288 287 287 287 287 286 285 286 285 285 285 284 284 284 284 285 286 285 286 285 284 283 282 282 282 281 281 281 282 282 283 283 282 282 282 282 283 284 283 284 284 284 285 285 285 286 286 286 286 287 286 286 286 286 285 286 285 285 285 285 285 285 285 285 285 285 285 284 285 285 285 285 285 285 285
290 290 290 289 289 289 289 288 288 288 289 288 287 286 286 287 286 285 285 285 285 285 284 283 283 283 283 284 285 285 285 285 284 283 282 281 279 279 278 278 280 281 282 281 281 281 281 282 282 282 282 283 283 283 283 284 284 284 284 284 284 284 285 285 285 285 285 285 285 284 284 285 284 284 284 284 284 284 284 284 283 284 284 283 283 284 284
289 289 289 289 289 288 287 287 287 288 288 287 287 287 287 286 286 286 286 285 284 284 284 283 283 282 283 283 283 284 284 283 284 282 281 280 279 278 277 278 280 281 282 281 281 281 281 281 282 282 282 282 282 283 283 283 282 283 283 283 283 283 283 283 283 283 284 285 285 284 284 284 284 283 283 283 283 283 283 283 283 282 283 282 282 282 282
289 289 288 288 287 286 287 286 287 287 286 286 287 287 287 286 286 286 286 285 284 283 284 283 283 283 283 282 282 282 282 282 282 281 281 281 281 279 278 278 279 280 281 280 280 280 280 280 281 281 282 282 282 282 282 281 281 281 281 281 282 282 282 281 281 282 282 282 282 283 283 283 283 282 282 282 282 282 282 281 281 282 281 281 281 281 281
288 288 288 288 287 287 287 287 286 286 286 286 286 286 287 286 285 285 285 284 284 283 283 282 282 282 282 281 281 280 280 280 279 280 279 279 280 280 280 278 279 280 281 279 279 279 279 280 281 281 282 282 282 281 280 280 280 280 280 280 280 280 281 280 280 280 280 281 281 281 281 282 281 281 281 281 281 281 281 281 280 280 280 280 280 280 280
288 288 288 288 287 287 286 286 286 286 286 286 286 286 285 285 285 284 284 284 284 283 282 282 281 281 281 280 280 280 281 280 279 279 278 277 277 278 279 280 280 279 280 280 278 279 279 280 281 282 281 281 281 281 279 279 279 279 279 279 279 279 279 279 279 279 280 280 280 280 280 280 280 280 280 280 280 280 280 280 280 279 279 279 279 279 278
288 289 288 286 287 287 287 286 286 286 286 285 285 285 285 285 285 284 283 284 284 283 283 282 282 281 280 280 279 280 280 280 280 280 280 279 279 279 279 281 279 280 280 280 278 278 279 281 281 281 281 281 280 279 278 278 278 278 278 278 278 279 279 279 279 278 278 278 279 278 278 279 279 279 279 279 279 279 279 279 279 278 278 278 278 278 278
288 288 288 287 287 286 286 286 285 285 285 284 283 283 284 284 284 283 283 284 285 284 283 282 282 281 281 281 280 278 278 278 278 279 279 279 279 279 280 281 281 281 280 279 278 279 279 280 280 281 280 280 280 278 278 277 277 277 277 277 277 277 278 278 278 277 277 278 278 278 279 278 278 278 278 278 278 278 278 278 277 277 277 277 277 277 277
288 288 287 287 287 286 286 286 285 284 283 283 283 284 283 283 283 282 282 284 284 283 283 282 282 281 281 281 280 280 279 277 276 277 278 278 278 278 279 278 280 281 280 280 279 280 280 280 280 280 280 279 278 277 277 277 277 277 276 276 276 276 277 277 277 277 277 277 277 276 276 276 277 277 277 277 277 277 277 277 277 276 276 276 275 275 275
288 288 287 286 286 285 284 284 283 281 281 282 283 282 281 282 282 281 280 281 283 282 281 281 281 281 281 281 280 280 279 279 277 277 278 278 278 278 278 280 281 281 279 278 278 278 280 280 280 280 279 279 277 277 277 277 277 277 277 276 276 276 276 276 276 276 276 276 276 276 275 275 275 276 276 276 277 277 277 276 276 276 275 275 275 275 275
287 286 286 285 284 284 283 280 280 281 282 282 281 281 281 281 279 278 279 280 281 281 280 279 279 279 278 278 280 279 278 279 278 278 278 278 278 278 278 279 279 280 280 277 278 277 279 279 279 279 278 277 277 277 277 277 277 277 276 276 276 276 276 276 277 277 276 275 275 275 275 275 275 276 276 276 276 276 276 276 276 276 276 275 274 274 274
286 285 285 284 285 284 283 282 282 282 282 281 281 280 281 280 280 280 279 279 279 280 278 278 277 277 277 276 277 277 277 278 278 280 278 278 278 280 280 279 278 279 278 277 277 276 276 277 277 277 277 277 276 277 277 277 276 276 276 276 276 275 275 275 275 275 275 275 274 274 275 275 275 275 275 275 275 275 275 275 275 274 274 274 274 273 273
287 286 285 284 284 283 283 282 283 283 282 281 280 280 279 280 281 279 279 281 279 279 279 278 277 277 277 277 277 277 278 278 278 278 279 278 278 277 278 279 277 277 277 277 276 276 276 277 278 278 278 276 276 276 277 277 276 276 276 276 276 275 275 275 274 274 274 274 274 274 274 274 275 274 274 275 275 274 274 274 274 274 274 273 273 273 273
Wind_Speed
7 6 10 9 5 3 4 7 11 11 12 10 7 6 4 4 1 4 10 11 12 11 13 18 19 18 18 19 20 18 16 15 14 14 15 16 14 13 11 11 9 6 6 7 9 8 6 4 4 3 3 4 4 4 8 10 7 7 7 9 14 16 16 15 16 15 14 13 13 14 14 14 14 14 14 13 12 12 12 13 12 14 15 15 14 14 14
12 11 6 3 2 2 2 7 9 10 12 10 8 6 5 5 2 5 7 11 10 7 14 19 20 18 17 17 15 15 17 17 15 14 14 14 15 14 12 11 10 8 5 6 7 6 6 5 2 1 1 2 4 5 8 7 8 10 6 4 8 13 16 16 15 14 14 13 14 15 15 16 16 15 14 13 13 13 13 14 14 13 14 14 15 16 16
11 9 1 1 2 2 1 7 7 11 12 7 7 5 5 7 6 5 9 10 9 7 12 16 18 16 16 18 18 17 16 16 15 14 14 14 15 15 15 13 11 10 8 7 6 6 5 5 3 2 2 1 1 2 2 5 7 8 6 8 10 13 15 16 15 14 14 14 14 15 16 16 15 15 15 13 14 14 14 14 15 14 14 15 15 15 16
8 7 3 6 1 4 1 8 13 14 13 9 8 5 5 4 7 10 10 8 9 17 19 19 16 17 19 20 20 18 14 15 15 15 15 14 14 15 15 15 13 12 9 6 7 8 6 6 5 3 3 4 3 1 1 1 6 9 8 8 13 19 18 16 13 14 14 15 15 16 16 16 17 16 14 14 15 15 15 15 14 13 14 16 17 16 14
5 9 4 7 4 2 3 11 10 10 11 8 8 6 4 5 6 8 9 8 10 15 16 17 20 20 19 19 19 18 19 17 15 15 16 15 14 14 15 15 15 13 10 8 7 8 7 7 7 5 3 3 5 4 4 3 3 5 10 15 17 16 14 14 14 13 14 15 16 16 16 17 16 15 16 16 16 16 17 16 14 15 16 16 16 16 16
5 11 9 5 3 6 6 5 2 4 10 13 8 10 12 6 2 5 4 9 13 15 14 15 19 19 20 17 18 16 16 16 17 16 13 13 13 13 14 15 14 13 10 8 7 7 8 8 7 6 4 4 4 6 6 5 4 4 5 6 8 11 12 11 12 12 13 15 16 16 16 16 16 16 17 17 17 16 15 15 15 15 16 17 16 16 16
5 7 7 3 5 1 4 3 4 2 7 8 8 13 9 3 5 9 9 9 11 12 12 13 15 17 17 17 13 16 21 22 20 19 16 12 10 11 11 12 12 11 10 8 8 7 8 9 7 5 4 4 3 3 5 5 5 5 4 4 4 5 8 11 10 9 8 7 8 10 13 15 15 16 17 16 17 15 14 15 16 16 17 17 16 16 16
2 3 3 2 0 2 2 5 4 4 4 5 8 6 2 3 6 13 7 9 11 13 13 13 13 15 17 12 7 16 23 25 22 21 17 12 11 11 10 10 11 9 7 6 6 7 5 5 6 4 5 4 3 3 5 5 5 5 5 6 5 5 6 6 8 5 11 12 10 9 10 12 12 15 15 16 17 15 14 14 14 14 14 14 15 15 16
1 1 1 2 1 2 2 4 6 9 7 11 8 6 4 2 8 14 9 9 13 14 13 12 14 18 13 7 11 19 21 25 23 21 21 17 13 12 11 10 11 9 6 6 6 5 6 5 4 5 5 4 4 5 3 4 5 5 5 6 7 7 6 7 6 7 9 12 14 14 14 11 12 13 13 14 15 13 14 14 14 15 15 15 15 16 16
2 1 2 3 3 2 5 3 9 6 3 5 5 4 4 3 12 13 11 11 14 16 15 12 15 16 17 24 20 22 22 24 23 24 21 19 19 17 13 11 9 8 7 6 6 4 5 6 5 4 4 4 5 5 5 4 3 6 7 8 8 7 7 8 6 5 8 9 10 10 11 14 15 12 11 13 13 13 14 15 15 15 14 14 14 14 15
3 2 0 1 1 3 2 8 9 12 8 4 2 3 3 7 14 15 13 15 14 14 16 14 11 15 16 13 13 19 19 21 18 21 21 20 19 18 19 13 11 11 10 8 6 4 4 5 7 6 6 6 6 6 6 5 5 4 5 8 8 8 8 8 7 6 5 7 10 11 10 12 12 13 14 12 13 13 13 14 15 14 13 13 13 13 14
0 0 0 2 2 1 3 7 8 11 10 0 4 3 5 12 14 14 15 15 15 14 15 13 6 11 13 15 15 17 18 19 15 17 20 20 20 20 19 20 12 8 7 5 4 5 6 7 7 7 7 7 7 7 7 5 6 8 9 8 8 8 8 8 7 6 5 6 9 10 12 13 13 13 11 11 11 11 14 13 13 13 12 12 14 13 13
2 2 2 1 2 2 3 5 8 10 10 1 5 10 10 12 13 13 12 13 13 13 13 12 9 4 1 6 11 13 16 19 17 19 20 21 20 20 21 19 20 9 5 4 6 6 7 8 7 7 8 7 8 8 7 7 9 11 10 10 7 6 7 8 8 8 6 7 9 10 11 12 13 12 10 11 11 12 14 14 13 13 13 13 13 13 12
1 1 1 3 3 2 2 6 4 8 5 5 10 6 7 10 11 11 12 12 12 11 12 11 10 10 7 9 9 12 18 19 15 19 22 24 24 22 20 19 17 14 9 8 8 9 9 9 8 8 8 8 7 7 7 10 12 11 10 11 11 9 8 8 9 9 8 8 8 9 10 11 10 10 11 13 13 12 10 12 15 15 14 13 12 12 11
1 2 3 3 1 2 1 5 2 3 4 3 6 7 8 8 7 8 12 10 11 11 11 12 12 11 10 10 11 11 14 16 15 16 20 21 20 19 19 20 19 15 13 13 12 11 10 10 9 9 9 9 8 7 7 10 10 11 12 12 12 12 11 9 8 9 9 10 9 7 9 11 12 13 13 14 15 13 14 14 14 14 13 12 11 12 11
1 0 1 1 4 4 3 3 2 3 1 4 6 4 8 8 6 5 8 10 9 10 10 12 12 11 10 11 12 11 14 16 15 15 17 21 20 19 18 17 18 16 14 12 12 11 9 10 9 9 9 9 9 9 9 9 10 11 12 13 13 12 12 10 8 7 7 8 9 8 10 11 12 14 14 13 10 4 4 8 10 13 12 10 11 12 12
2 2 2 3 4 3 4 1 1 2 5 4 4 4 6 6 7 2 5 9 10 11 11 11 11 11 10 11 12 12 13 14 15 15 15 17 19 17 16 16 17 15 14 14 12 10 9 12 11 10 9 10 10 11 11 8 10 13 14 14 13 13 12 10 9 6 5 5 6 8 9 10 11 12 11 7 7 5 3 1 5 8 10 10 10 11 11
2 2 4 0 3 4 6 3 3 3 4 5 4 4 5 6 7 6 5 9 9 10 10 9 11 10 11 10 10 11 12 13 13 13 13 15 18 20 18 19 20 16 15 12 14 17 17 16 14 12 10 9 11 12 11 10 11 13 14 15 15 14 12 12 9 7 6 6 7 7 7 9 11 11 11 10 12 11 11 12 12 12 8 8 9 9 10
1 2 1 2 3 4 3 3 5 4 3 3 3 5 4 6 7 8 7 7 8 9 8 10 10 11 11 9 10 9 11 13 14 14 14 15 17 19 20 17 18 18 18 19 20 20 20 19 17 16 15 13 11 11 13 10 16 18 15 16 15 13 13 10 7 6 7 8 8 9 7 7 7 8 8 9 10 11 12 12 12 11 11 9 5 7 11
3 3 4 2 4 5 5 1 3 4 5 6 6 4 4 5 6 7 6 5 7 7 10 11 11 12 11 9 10 10 10 11 12 13 13 15 16 15 16 16 16 15 17 17 17 16 15 16 16 16 15 16 15 13 16 22 26 24 13 16 14 11 8 6 5 4 5 10 12 10 9 8 8 6 6 9 11 12 13 13 13 12 11 11 12 13 12
5 3 3 3 5 2 3 5 4 4 5 5 6 6 6 6 8 9 8 5 5 8 9 10 11 11 12 10 9 11 11 12 13 13 12 13 14 15 17 18 20 17 15 17 18 18 16 15 14 15 15 15 16 21 25 26 30 16 5 8 9 8 5 2 0 0 2 3 5 7 9 9 7 5 8 10 11 12 13 14 16 15 14 16 16 16 14
2 2 2 0 1 3 6 4 5 5 6 4 4 5 6 7 8 8 8 10 7 6 9 10 11 12 11 11 9 11 12 12 13 13 14 13 14 15 15 15 17 18 19 19 18 18 17 16 16 17 18 19 20 24 24 22 24 14 12 13 12 10 7 5 4 3 1 1 1 2 3 3 2 0 3 6 5 3 6 7 10 16 18 16 16 14 14
4 6 6 4 3 2 4 3 4 4 4 4 5 5 5 7 7 7 9 11 11 9 10 9 11 11 11 12 8 9 11 12 12 13 13 14 14 15 15 16 18 19 19 19 19 20 18 17 18 18 19 21 23 22 17 16 17 14 15 14 13 12 10 9 7 5 3 3 2 3 3 2 1 1 3 6 14 16 11 6 2 5 7 7 5 12 13
4 4 4 3 1 0 1 4 4 4 4 4 4 5 6 6 6 8 9 9 10 10 10 10 9 10 11 11 10 9 10 12 12 13 13 13 12 13 15 15 16 18 18 18 18 19 18 18 17 17 18 19 19 18 17 17 18 17 17 15 14 12 11 10 10 9 7 6 5 3 4 4 4 3 4 4 6 13 16 11 11 9 6 4 5 5 8
2 0 1 1 1 2 2 3 3 3 4 4 3 6 6 7 6 7 9 8 8 10 10 11 10 10 10 10 9 8 10 11 11 12 12 12 14 13 13 15 17 16 15 15 15 16 16 18 18 18 18 18 17 17 17 17 18 18 18 18 18 15 13 12 11 12 11 10 9 8 6 6 5 4 4 5 6 5 9 14 18 19 17 15 13 10 4
3 1 0 1 2 1 2 4 5 6 6 4 4 5 6 7 5 7 8 7 8 9 9 10 10 11 10 10 9 8 8 11 12 12 12 13 13 14 15 15 15 13 14 15 15 17 18 19 18 17 18 19 19 17 16 17 17 17 18 17 16 15 13 12 11 10 10 10 9 9 9 9 8 8 7 6 3 3 6 5 7 10 14 18 16 14 15
3 3 3 2 3 3 3 2 2 4 3 2 4 5 6 6 6 4 5 6 7 7 8 9 9 9 10 10 10 9 8 10 12 13 12 14 15 14 13 13 14 15 15 15 16 18 19 18 18 18 18 18 17 18 17 17 17 17 17 17 15 16 20 16 10 10 10 10 9 9 10 10 10 10 9 7 6 8 8 8 7 7 7 9 12 17 13
4 3 3 2 2 2 1 3 2 2 1 3 4 5 5 6 5 5 7 8 10 9 8 9 10 11 12 11 11 11 9 10 11 12 13 13 13 12 14 15 14 14 13 15 15 17 17 17 17 18 19 19 19 18 17 16 16 16 16 16 15 14 13 14 12 10 10 10 11 11 10 9 9 9 9 9 9 8 8 9 8 7 7 7 6 10 16
4 4 2 3 4 3 1 0 3 4 4 4 4 5 5 6 4 5 6 7 8 9 10 10 8 8 9 10 10 11 9 9 11 11 11 11 12 13 13 14 13 14 14 15 14 16 17 17 17 16 16 19 18 18 16 16 15 15 15 14 14 14 15 12 10 9 10 11 11 11 10 9 9 10 10 10 10 9 8 8 9 8 8 8 8 10 12
4 2 4 4 2 3 3 2 1 2 3 4 5 5 5 5 5 5 5 6 7 9 10 9 8 9 8 9 10 10 9 9 9 8 9 10 11 12 13 13 13 14 14 16 16 17 17 16 17 16 16 18 18 17 16 15 14 15 15 15 14 14 11 11 11 11 11 10 11 12 11 10 10 9 10 9 9 9 9 9 9 9 9 10 9 9 10
0 3 6 3 4 3 1 1 1 1 3 4 5 5 6 5 4 4 5 5 6 8 9 9 8 9 9 9 8 8 8 8 9 9 9 10 10 11 12 12 13 13 14 14 16 16 16 16 15 16 16 16 16 16 15 14 13 14 13 13 13 18 22 20 15 13 11 12 12 11 10 10 10 10 10 9 10 9 9 9 9 10 9 10 10 9 9
6 6 6 4 3 2 1 2 4 4 3 4 6 6 4 5 5 5 4 5 6 7 8 9 8 8 9 8 9 8 8 7 8 10 9 9 10 11 11 11 11 11 12 14 14 15 15 15 17 16 15 15 15 16 14 13 13 13 13 12 13 12 15 21 14 14 13 12 12 13 12 10 10 11 11 11 11 10 9 9 9 9 8 9 10 10 8
5 4 3 2 1 2 1 1 4 3 4 5 4 3 4 4 4 3 3 4 5 6 7 8 7 6 7 8 8 8 7 6 7 9 10 11 11 10 10 9 9 9 11 12 12 12 14 15 15 15 15 15 15 15 14 13 13 12 12 11 11 12 12 14 15 12 13 14 13 13 12 12 11 10 10 10 9 7 9 9 8 9 9 9 9 9 9
6 5 6 5 5 4 2 3 3 4 3 3 3 4 4 4 4 3 3 3 4 5 7 8 9 6 5 6 7 7 5 4 6 8 11 11 11 11 11 9 8 8 8 11 13 13 13 14 15 15 15 14 14 14 14 14 12 11 12 11 11 12 13 12 13 13 12 13 12 13 12 12 13 12 10 10 9 10 10 10 9 10 10 10 9 8 11
5 4 6 6 4 5 7 8 6 4 4 4 3 3 3 3 4 3 2 4 4 4 5 7 8 7 3 4 5 7 8 8 7 7 7 9 10 11 10 9 10 12 12 13 14 14 14 14 15 15 14 14 14 14 14 13 13 12 13 12 12 11 11 11 12 12 12 11 11 12 12 13 12 11 12 13 12 11 11 11 11 11 11 11 10 10 11
6 5 4 6 8 9 9 8 6 6 5 4 3 2 2 3 4 4 3 4 3 4 5 6 6 6 5 3 5 6 7 7 8 8 8 8 8 9 10 12 13 14 14 13 14 13 14 13 18 20 13 12 13 14 16 13 11 12 11 12 11 11 12 12 12 11 12 11 11 11 10 11 12 12 12 12 12 12 11 11 12 12 11 11 11 11 11
7 8 6 7 7 8 8 7 7 6 5 4 4 3 2 2 3 3 3 4 4 4 4 5 7 7 7 4 4 4 5 6 5 6 6 5 4 6 9 10 13 12 11 12 14 13 12 13 18 18 12 11 12 13 16 19 10 10 10 11 11 11 11 12 12 12 12 11 11 11 11 11 11 11 12 11 11 11 11 10 10 11 11 11 11 11 11
6 8 9 8 8 8 8 7 6 6 4 4 2 2 1 0 1 2 4 4 4 3 4 5 5 4 5 5 4 4 4 4 4 5 5 6 4 6 8 9 10 10 11 10 11 11 10 13 15 11 10 10 11 11 15 20 15 11 10 11 11 11 11 11 12 12 12 11 11 11 12 11 11 11 10 11 10 11 11 11 11 10 10 11 10 11 11
5 4 6 6 7 7 6 5 5 4 4 4 3 3 2 1 1 4 4 4 3 3 4 4 5 6 7 5 3 4 4 3 4 5 6 6 6 8 8 8 8 7 7 8 9 9 10 12 10 9 10 10 11 11 13 17 16 10 10 10 11 10 11 11 11 11 11 11 11 11 11 12 11 11 10 11 11 10 11 12 11 11 11 11 11 12 12
7 7 7 6 6 6 7 6 5 4 4 4 5 3 2 2 1 3 4 4 3 4 4 4 4 5 5 5 4 4 4 3 3 5 5 5 5 5 5 7 7 7 8 9 8 8 11 14 11 9 9 10 10 9 10 14 13 10 10 10 10 10 10 9 10 10 10 10 12 12 11 11 11 10 11 10 11 12 11 10 11 11 10 10 10 10 11
9 7 6 6 6 5 6 5 4 4 5 4 3 3 3 4 3 4 4 4 3 4 4 4 4 4 4 4 4 3 4 4 4 5 4 5 7 7 8 8 6 6 7 7 7 7 10 10 10 9 9 9 9 11 9 12 10 9 9 10 10 10 10 10 10 10 10 10 10 10 10 9 10 11 11 11 11 11 11 10 11 11 10 10 9 8 9
5 6 6 6 5 5 3 3 4 4 3 3 4 4 4 4 4 4 5 4 4 4 4 4 4 3 4 4 4 4 4 4 4 5 7 8 7 6 7 6 5 6 9 8 8 8 7 8 9 9 9 9 8 14 13 9 9 9 9 9 9 10 10 10 10 10 9 10 10 9 9 9 10 10 10 10 11 11 10 10 10 11 11 11 11 10 10
8 7 7 7 5 4 5 5 6 6 4 3 4 4 4 4 4 4 4 4 5 4 4 3 4 4 4 5 5 5 5 5 4 3 3 4 4 4 4 3 4 6 9 7 7 7 8 7 8 8 12 12 10 13 12 9 9 9 9 9 9 9 10 10 9 9 9 9 10 10 10 10 10 10 10 10 10 10 10 11 11 10 10 10 10 10 11
7 8 7 6 5 4 5 5 4 5 6 4 4 4 4 3 4 5 5 5 4 4 4 4 4 4 4 4 5 5 5 4 5 5 5 5 5 4 4 3 3 6 9 6 6 7 7 7 7 11 14 15 15 13 9 8 9 9 9 9 9 9 9 9 10 10 10 10 10 9 9 10 10 10 10 10 10 10 10 10 10 10 10 10 10 10 10
8 8 8 7 6 5 6 6 5 5 3 3 4 4 4 4 3 3 4 6 5 4 4 4 4 4 4 4 5 3 3 3 3 4 5 5 5 6 5 4 5 5 7 8 7 7 7 8 11 14 12 14 13 12 9 8 8 8 8 8 9 9 9 9 9 9 9 10 10 9 9 9 9 10 10 10 10 10 10 10 10 10 10 10 10 11 11
9 9 8 8 7 6 6 6 5 4 5 6 4 3 2 3 4 3 3 5 5 4 4 4 5 4 4 4 3 3 3 3 4 3 2 1 2 2 3 5 3 5 8 8 6 7 7 12 14 14 14 13 12 9 8 8 8 8 8 8 9 9 9 8 9 9 9 9 9 9 9 9 9 9 9 9 9 9 9 10 9 9 10 10 9 9 8
7 6 6 6 6 6 5 5 4 4 4 5 4 3 1 1 4 3 3 5 7 5 4 5 5 4 4 4 4 4 3 4 5 5 4 4 3 3 6 6 5 6 7 6 6 7 7 9 11 14 14 13 11 7 7 8 8 8 8 8 8 8 8 8 8 8 8 8 9 9 9 9 8 8 9 10 9 9 9 10 10 10 9 9 9 10 10
7 7 7 7 8 7 6 5 4 4 3 6 6 6 4 2 4 3 4 6 7 6 5 5 5 4 4 4 4 3 5 5 5 4 4 4 4 4 5 5 5 5 6 7 9 9 13 13 13 13 13 11 8 7 7 7 7 8 8 8 8 8 8 7 8 8 8 8 8 8 8 8 8 8 8 9 9 9 9 9 9 9 9 9 10 10 10
8 8 8 7 7 6 6 5 4 4 5 4 5 5 3 5 4 4 4 5 6 5 5 4 4 4 3 3 4 4 3 3 4 2 2 3 4 5 5 6 8 7 5 5 6 6 10 13 12 12 12 9 7 7 6 6 7 7 8 8 7 7 7 8 7 7 7 8 8 8 7 8 8 7 8 8 9 9 9 9 9 9 9 9 9 9 9
6 7 7 7 7 6 5 5 4 6 5 5 6 5 5 6 5 3 4 6 6 6 6 5 4 4 3 3 4 4 4 4 4 3 4 4 3 4 5 5 5 6 6 5 5 6 8 10 10 10 8 7 7 7 7 7 7 7 7 7 7 7 8 8 8 9 8 7 7 7 7 7 7 8 9 8 9 9 9 9 8 11 15 11 9 9 9
7 8 7 7 7 7 6 7 7 7 7 7 6 5 6 6 6 4 5 7 6 7 6 5 3 2 2 2 3 3 3 4 4 4 5 4 4 5 5 5 5 4 3 4 5 5 5 6 6 6 7 7 7 7 7 7 7 7 7 7 8 7 7 8 7 7 8 7 6 7 7 8 8 8 8 8 9 9 9 9 9 9 9 9 9 9 9
8 7 6 6 6 7 6 6 6 6 7 6 6 6 6 6 6 5 3 5 7 7 7 7 4 1 2 4 4 4 3 4 4 5 5 4 4 5 5 5 5 5 5 5 5 4 5 5 5 6 6 6 6 6 6 7 7 7 7 7 7 7 7 7 7 7 7 7 7 7 8 8 8 8 8 8 8 8 8 8 8 8 8 8 8 8 8
Wind_Direction
268 238 259 273 287 281 285 359 353 353 344 346 354 342 327 327 290 311 318 322 315 320 328 327 322 318 313 308 305 302 297 295 298 304 307 307 309 314 319 321 326 342 330 323 326 323 322 336 9 339 323 278 240 230 197 193 196 254 269 216 206 208 212 215 210 208 206 205 207 210 212 217 220 218 215 211 207 204 203 204 201 201 200 201 203 204 207
307 315 315 286 189 259 287 2 352 346 351 347 353 324 324 320 254 307 311 322 310 297 323 322 315 311 306 305 302 300 302 301 301 300 297 296 299 303 305 308 311 313 307 309 305 303 310 313 320 2 47 328 291 246 251 241 215 203 188 275 270 224 213 215 211 209 205 204 204 206 208 212 216 215 213 211 208 205 204 203 203 201 200 202 204 205 206
309 308 51 133 188 217 210 3 3 358 352 341 4 329 321 312 255 295 326 325 303 301 314 314 311 306 301 308 308 304 298 298 301 300 294 292 293 295 298 301 302 300 300 294 289 289 288 291 262 200 172 164 343 343 250 246 263 251 221 207 230 268 247 217 211 204 203 203 203 204 208 211 214 212 211 210 210 210 207 203 203 200 199 202 206 207 206
304 306 16 320 180 215 126 2 5 355 350 348 339 325 312 305 306 312 317 324 331 326 327 319 312 313 315 316 312 310 308 304 300 295 289 286 287 291 294 297 296 294 293 282 286 282 274 274 272 220 190 172 148 129 317 191 194 230 238 233 236 228 224 236 217 208 204 204 203 206 206 209 210 211 210 209 211 211 209 207 204 200 200 204 207 207 207
261 285 346 321 349 109 292 3 346 336 333 332 307 289 304 283 304 318 338 326 305 307 312 319 323 325 323 324 316 317 311 304 295 289 287 282 278 281 287 289 287 286 281 275 269 274 268 263 270 264 214 185 172 189 199 242 216 177 191 206 213 227 236 229 226 214 211 206 205 206 208 209 209 208 208 210 212 211 210 208 205 203 205 205 207 207 206
276 296 323 335 14 36 9 278 227 320 332 322 317 318 311 314 253 279 282 283 296 310 320 326 326 329 324 318 311 318 320 311 305 297 284 274 276 281 283 282 282 281 280 273 258 253 263 266 262 263 243 229 213 185 197 216 229 227 204 217 215 229 235 230 225 232 220 213 210 209 209 208 207 207 207 210 210 210 211 209 207 207 208 209 209 207 207
266 306 347 42 28 21 235 242 260 241 302 289 294 302 301 284 291 277 282 286 309 319 314 324 326 319 315 312 314 347 343 341 337 321 298 288 279 281 283 288 287 281 279 279 275 268 263 260 259 253 256 226 214 186 189 201 211 237 251 224 234 237 232 233 226 202 245 301 287 253 225 213 208 208 208 210 210 209 208 208 207 208 207 208 209 208 208
329 358 8 61 282 245 315 289 264 289 266 217 318 314 159 240 291 327 312 289 320 322 321 322 326 326 316 303 331 351 354 351 343 338 324 299 296 289 289 293 293 290 282 277 281 285 282 292 291 278 277 282 272 239 188 200 215 220 243 259 247 230 234 239 231 173 171 203 220 260 305 289 244 219 212 209 210 209 210 211 211 211 213 210 210 210 212
226 252 290 226 316 355 308 324 334 343 340 332 333 313 297 244 334 338 324 317 327 326 323 320 332 334 320 316 349 3 357 348 344 342 343 335 305 290 289 288 286 283 278 284 285 287 294 289 284 289 291 293 281 286 259 188 199 224 218 237 248 239 237 236 228 205 204 198 205 211 211 227 273 271 241 224 216 211 211 212 210 210 210 208 209 208 208
165 303 352 349 21 339 290 294 295 305 262 240 262 229 288 293 342 338 328 327 327 327 323 329 341 333 358 11 352 344 346 347 343 342 343 347 351 340 312 290 289 292 294 291 284 285 295 301 303 304 307 305 306 296 290 278 196 195 221 229 232 240 240 243 239 211 206 209 212 212 210 212 212 221 249 254 237 212 211 210 212 212 212 213 212 210 207
26 17 27 233 182 250 226 304 309 307 320 311 213 157 248 344 343 332 333 335 329 328 326 327 346 1 12 356 343 334 340 337 344 342 343 347 349 348 345 322 299 303 298 293 294 311 321 321 313 316 313 313 306 295 290 287 288 258 210 217 226 226 239 243 245 235 212 209 211 210 207 215 213 211 211 220 243 242 220 213 214 212 212 215 217 214 211
280 204 159 264 198 245 330 309 309 307 309 133 158 320 350 340 331 331 336 332 331 330 328 327 347 12 360 344 339 332 334 328 344 349 347 349 350 350 349 350 323 293 299 312 332 336 328 317 319 321 317 305 294 287 283 285 280 272 268 244 216 226 230 237 240 232 219 200 207 210 212 216 219 216 210 206 222 237 243 223 213 211 209 212 216 218 215
310 60 289 343 317 280 267 280 307 304 317 32 5 8 320 318 320 324 330 325 328 330 330 330 340 347 326 295 305 321 335 337 348 355 354 351 352 356 353 348 339 315 323 341 339 331 323 321 326 333 326 312 295 289 287 283 272 265 264 269 253 222 227 234 238 238 227 211 202 206 210 214 218 213 208 213 212 220 232 240 222 213 210 211 215 218 215
288 227 169 234 233 232 239 294 319 309 343 28 346 297 285 300 306 323 324 325 326 331 326 326 323 318 311 304 317 342 353 346 346 0 356 355 352 353 354 346 348 348 357 350 348 342 328 322 326 323 320 310 294 292 290 281 278 278 277 270 267 259 231 223 229 234 231 222 211 208 208 212 215 208 208 213 214 213 221 237 234 216 211 210 211 214 214
34 46 29 23 14 263 271 340 1 357 54 271 248 285 298 300 303 319 323 323 321 329 324 321 318 321 325 326 329 343 354 352 352 1 1 356 350 349 349 351 350 351 2 4 1 355 346 342 330 320 317 311 307 300 290 287 290 286 278 272 266 262 253 234 226 227 230 228 219 211 213 212 212 211 208 209 212 208 212 221 237 237 217 211 209 213 215
212 337 151 207 214 241 298 70 53 300 233 240 275 282 299 308 311 309 326 321 319 322 325 326 325 324 330 332 338 343 356 357 355 358 3 359 351 349 352 354 352 351 357 358 354 345 340 340 334 331 325 307 299 292 283 285 292 288 277 266 258 255 252 246 226 220 228 233 227 216 215 214 217 218 216 213 207 210 260 248 230 233 238 218 212 215 215
150 215 224 260 264 254 271 162 204 236 273 284 274 284 276 297 316 270 300 312 315 325 329 329 333 335 334 334 338 345 351 353 355 357 2 359 350 347 352 356 355 358 356 355 349 336 342 349 348 342 336 317 295 285 279 281 288 289 278 263 249 241 239 234 222 225 228 239 238 226 218 209 213 216 214 157 170 177 170 268 318 297 272 251 228 221 217
244 245 194 328 327 324 312 284 227 251 285 294 293 300 303 311 317 305 277 310 311 317 328 337 341 340 336 335 336 347 350 350 349 351 358 359 354 351 356 1 357 357 357 359 0 0 358 1 356 349 339 326 305 287 283 278 285 289 268 247 233 228 229 225 223 215 225 239 246 242 226 209 207 207 198 177 188 193 194 201 201 205 218 274 276 255 239
111 214 150 348 292 299 268 271 308 296 273 268 291 311 296 301 323 328 309 308 316 326 331 348 342 343 343 345 344 351 353 351 351 354 359 1 358 354 353 358 358 359 360 1 0 357 359 356 352 344 336 330 311 289 264 293 332 318 269 226 213 213 217 219 214 210 222 233 236 237 229 225 214 202 187 176 180 184 189 195 203 204 203 194 214 247 248
176 235 210 251 271 249 247 272 315 303 303 303 311 304 304 316 325 344 328 330 341 341 353 347 352 348 344 353 355 357 359 353 354 356 360 2 356 355 350 351 2 2 3 3 357 355 358 351 346 337 335 329 317 317 355 356 340 317 259 204 192 186 198 194 208 210 229 234 228 226 223 209 205 211 204 188 183 186 185 184 188 196 203 203 205 211 222
283 322 306 291 320 342 330 331 315 289 292 303 324 333 340 345 355 350 337 334 339 352 354 352 355 355 352 355 355 2 0 0 358 359 359 2 0 354 357 357 359 2 1 359 355 360 358 349 345 341 336 334 338 3 10 360 339 302 130 112 103 99 97 88 68 43 224 243 245 239 221 213 210 210 211 207 200 201 197 182 182 184 195 199 202 207 212
325 202 247 352 38 283 302 321 302 305 319 341 343 351 357 358 359 355 351 345 339 347 3 2 359 359 354 357 358 6 4 4 1 360 358 1 3 1 359 359 0 357 357 359 0 359 355 351 352 351 349 352 359 14 14 349 321 330 64 69 71 66 65 64 49 53 43 8 247 222 225 218 180 48 33 67 15 287 246 246 235 207 187 194 200 198 205
241 249 242 211 199 236 233 254 295 311 329 349 8 360 353 353 4 356 3 1 354 353 352 0 4 359 355 356 360 8 9 6 3 2 3 1 2 3 1 3 1 360 358 356 356 359 358 358 358 357 359 2 5 6 356 332 325 351 37 58 56 54 48 37 13 29 36 40 55 88 87 96 77 49 359 13 31 27 8 11 358 328 308 315 283 221 201
249 234 241 205 155 144 267 300 300 318 329 349 4 10 356 3 3 3 9 2 360 355 354 352 358 358 354 356 1 7 9 9 6 4 2 3 7 4 6 6 2 1 357 356 357 357 357 359 360 0 5 5 3 356 348 343 348 2 28 45 51 43 41 32 26 23 19 17 18 51 77 83 81 68 54 41 30 33 34 40 51 64 48 338 315 317 282
232 237 205 192 155 196 253 282 283 320 347 6 16 13 3 5 6 15 10 359 357 1 359 350 345 357 357 354 0 6 12 7 6 3 5 3 4 8 8 7 6 3 358 356 355 357 358 0 1 2 7 5 1 356 354 353 359 8 15 29 38 34 29 28 25 30 32 25 19 27 33 52 48 45 63 81 76 55 46 61 66 57 45 35 24 7 333
140 134 115 92 95 8 307 345 6 1 353 9 28 15 9 10 8 16 5 2 358 359 359 352 348 352 358 0 360 3 17 13 4 7 11 7 5 7 8 7 4 2 1 0 1 1 360 1 2 2 8 5 360 357 358 1 5 13 17 21 30 32 28 26 26 28 28 33 29 27 30 33 42 46 36 26 34 64 63 34 31 46 49 45 36 39 32
132 149 97 35 12 339 352 84 257 301 321 5 64 31 16 10 0 3 351 357 3 2 357 351 351 352 3 7 7 10 24 16 14 14 11 10 7 4 2 1 2 3 5 6 6 3 2 3 3 3 4 4 2 359 360 4 8 15 20 20 19 22 24 26 27 27 31 31 27 28 35 36 34 34 34 25 33 50 54 47 36 37 28 29 41 51 47
158 179 139 153 206 211 292 310 290 298 338 54 53 37 19 12 9 360 2 5 8 358 354 358 0 5 8 8 9 10 14 26 23 15 14 9 3 359 2 0 0 2 7 9 7 4 4 1 0 3 2 360 4 1 3 5 11 15 19 21 20 20 15 19 26 27 31 34 34 32 30 33 37 45 38 35 34 40 49 59 53 33 27 25 25 37 49
184 191 161 146 180 203 223 346 40 27 24 20 46 47 28 23 2 8 10 16 1 355 357 353 4 19 15 8 12 12 12 26 24 20 14 6 4 2 0 2 360 3 6 4 3 6 5 5 1 355 355 356 2 2 3 7 12 15 19 22 22 20 18 11 13 25 31 37 39 34 36 31 32 39 39 38 35 31 37 44 51 45 45 21 2 21 33
192 182 127 132 110 73 58 13 356 6 43 35 55 36 27 29 24 16 14 15 8 358 349 345 5 19 17 14 16 11 12 22 29 20 17 11 8 5 3 1 4 8 6 7 5 4 5 4 3 360 355 352 359 2 4 9 13 15 19 21 26 22 11 9 15 16 25 31 29 33 36 35 36 36 43 43 37 37 37 41 39 42 41 37 34 34 28
105 122 137 134 86 71 86 13 51 57 61 50 56 47 25 27 37 27 18 14 11 356 351 351 7 14 15 17 14 15 15 21 29 24 22 14 11 10 6 7 15 10 6 2 1 3 3 2 3 1 349 350 359 3 5 13 13 13 18 19 21 19 18 17 26 24 24 24 25 25 28 38 39 38 39 40 42 42 43 42 41 43 39 41 39 27 15
111 124 115 116 125 114 17 40 77 65 59 56 54 42 27 27 25 22 20 16 17 356 347 354 1 23 18 13 17 22 21 20 24 26 23 18 15 13 8 7 12 14 10 4 4 3 1 0 2 352 346 351 358 6 9 14 15 19 18 14 18 17 17 18 23 22 24 27 26 29 22 23 35 41 40 39 38 40 38 39 42 38 39 44 42 32 12
121 116 124 133 72 56 4 4 99 74 59 61 59 54 35 30 26 30 25 16 17 359 350 353 351 22 23 18 22 29 24 23 28 27 22 19 15 10 5 4 6 10 15 10 2 3 5 2 352 345 347 350 359 5 9 15 20 21 20 19 20 19 21 23 20 23 27 27 29 24 24 25 23 30 39 39 37 35 34 35 34 36 42 43 44 35 28
157 177 183 184 157 160 135 93 104 93 67 61 54 49 32 18 11 26 26 25 20 6 358 350 346 8 36 27 23 29 32 36 32 31 23 16 11 7 2 1 3 5 15 13 10 10 5 359 352 348 344 351 0 8 8 12 19 21 21 22 23 25 25 22 21 27 29 28 25 24 29 28 29 27 20 22 28 32 31 32 29 32 36 37 37 38 33
153 166 152 158 136 118 117 124 127 120 101 80 41 38 28 19 6 9 29 38 32 359 353 351 352 349 21 32 29 25 32 38 37 36 32 20 12 1 353 351 6 13 16 18 15 9 1 354 352 347 345 352 1 9 9 7 18 21 21 25 29 31 28 28 28 28 28 27 25 27 28 29 29 25 29 31 28 24 29 28 28 28 31 29 25 23 27
120 138 133 103 113 118 119 123 126 131 125 124 125 110 55 20 1 8 26 26 27 18 4 358 351 356 358 27 38 31 33 38 42 41 40 32 18 4 4 13 12 13 7 8 13 5 356 353 348 348 349 356 1 5 8 1 17 21 23 26 29 29 30 31 29 31 30 28 29 29 27 29 34 32 30 31 30 29 28 29 30 30 31 29 26 26 28
150 141 130 123 129 126 129 130 134 134 138 145 136 103 44 12 348 359 33 46 38 25 7 8 6 3 351 7 49 42 40 38 43 41 38 31 24 18 18 21 20 13 5 12 358 356 353 351 343 348 357 3 3 5 2 0 10 17 25 27 31 31 32 32 28 30 28 28 28 27 26 29 32 31 29 31 33 28 26 30 30 33 35 33 28 28 29
141 141 141 138 136 134 141 151 151 141 142 136 137 142 140 263 7 62 76 63 56 33 20 19 12 348 359 6 43 44 38 32 45 43 39 32 24 36 32 31 20 12 14 2 343 347 350 345 344 357 2 4 4 5 3 2 6 17 26 26 30 32 35 35 33 31 28 25 25 30 30 31 31 28 25 29 30 30 28 26 27 30 33 31 30 29 28
120 121 133 144 137 135 141 155 157 157 146 143 175 187 194 153 106 99 86 79 77 68 44 18 8 16 11 3 18 33 36 32 32 42 42 36 30 40 43 34 29 19 360 341 350 352 349 349 355 3 8 4 3 4 6 6 8 21 25 28 29 34 33 37 35 36 34 29 29 29 32 32 31 29 28 27 28 29 31 26 26 28 28 26 27 26 24
154 159 162 150 143 150 148 165 174 171 168 162 160 194 202 157 146 116 112 91 92 94 69 42 31 21 7 8 11 20 17 35 43 38 38 35 37 46 52 43 26 10 2 357 359 356 353 356 5 12 9 5 8 5 5 8 13 24 24 26 28 30 32 33 36 36 34 33 33 31 35 33 29 31 33 30 31 31 27 23 26 27 28 26 26 23 24
170 170 168 155 158 158 163 167 181 181 169 177 162 198 162 152 157 117 127 123 128 100 83 67 45 22 16 14 15 14 20 33 45 38 28 32 36 33 37 29 360 1 2 3 2 359 2 8 10 12 9 7 12 11 10 8 17 26 27 29 29 28 28 26 30 31 33 32 34 37 35 28 28 30 30 33 35 33 30 29 29 29 27 27 23 19 23
164 148 148 155 160 162 168 171 155 155 167 168 190 187 176 174 146 148 153 138 119 106 89 66 61 53 30 29 30 27 19 26 54 57 43 43 33 25 35 18 347 356 359 3 5 8 10 12 14 16 13 10 14 14 16 20 24 23 26 26 29 30 32 30 30 27 27 33 36 36 33 35 33 32 28 32 33 31 28 27 30 31 29 29 30 25 22
132 126 120 128 141 149 150 143 131 143 145 171 173 169 182 170 132 127 138 132 123 118 97 88 66 48 44 44 45 38 20 9 28 48 54 39 38 40 47 347 344 359 4 13 12 16 15 16 20 24 20 21 21 17 23 28 27 29 29 27 27 29 31 31 31 32 31 31 32 32 31 33 33 33 32 31 30 29 27 27 29 26 26 26 25 24 25
132 128 135 135 145 139 114 116 121 117 127 168 192 159 140 139 141 139 144 140 135 136 127 110 86 73 68 65 61 49 31 27 26 21 43 11 6 12 20 18 9 5 11 19 18 19 15 17 21 24 26 28 27 28 29 29 29 30 30 31 32 32 31 31 31 29 29 30 29 28 28 31 35 35 34 33 31 30 31 30 29 26 25 25 25 25 25
140 144 150 156 150 124 124 132 128 138 152 132 135 126 117 111 121 138 134 141 147 153 134 116 102 97 92 80 77 71 72 59 51 39 53 24 19 5 352 20 23 19 19 26 24 20 19 20 21 25 29 30 33 34 35 33 32 31 30 32 33 34 34 36 32 30 30 30 29 28 27 31 36 37 35 34 32 32 31 31 31 28 26 26 25 23 21
153 158 157 151 139 143 155 148 154 137 108 107 113 108 131 125 132 141 120 132 149 151 144 128 120 119 113 95 88 75 53 44 37 41 60 84 79 325 342 35 35 38 33 33 29 24 20 20 24 28 28 30 33 37 38 36 34 33 33 33 32 32 36 35 34 35 32 32 31 30 29 29 30 34 35 37 34 35 33 33 32 29 26 27 26 24 18
156 152 151 140 146 148 143 142 134 111 100 108 129 152 195 119 139 148 104 119 140 131 125 115 115 117 112 109 103 86 67 47 23 13 16 5 3 355 13 36 47 41 36 36 34 30 26 25 26 28 30 30 35 39 39 38 37 36 36 35 33 36 34 35 36 34 32 34 33 34 33 34 33 34 34 34 33 33 32 32 31 28 26 26 26 26 24
138 147 154 146 148 155 146 136 142 149 150 170 173 172 194 147 114 91 88 110 117 117 117 119 120 118 117 109 108 114 132 121 75 4 347 6 4 18 23 30 43 60 47 39 36 26 25 27 27 29 31 32 35 39 41 41 41 40 38 36 38 36 36 37 35 34 34 34 32 34 34 34 31 34 35 35 34 35 35 34 31 29 29 28 27 25 25
149 151 155 149 144 145 147 156 159 159 176 172 148 166 151 112 113 98 93 103 119 119 121 121 117 119 118 126 114 105 94 104 119 125 343 28 39 34 25 31 40 53 55 52 38 29 24 26 26 28 30 31 35 37 41 43 44 43 41 41 38 36 37 39 37 37 38 37 35 35 33 34 31 29 32 37 37 36 35 36 35 32 27 28 27 26 27
143 132 137 147 151 156 140 124 147 171 161 140 152 155 129 114 111 108 100 106 119 122 116 112 117 124 132 115 99 104 101 87 77 73 55 43 42 47 38 38 44 58 63 62 48 33 23 25 24 26 28 29 30 35 40 45 45 44 45 41 40 40 37 36 39 42 41 39 37 36 33 32 33 36 35 38 38 36 34 34 35 34 33 31 29 27 25
151 153 164 167 162 162 159 153 158 154 147 152 153 144 127 131 146 147 132 128 120 117 110 98 93 126 129 95 91 93 89 82 82 73 63 47 47 46 43 44 48 50 53 57 57 44 33 30 27 26 28 29 31 34 41 43 43 44 43 43 42 41 36 34 33 35 39 40 34 34 36 36 36 38 38 38 37 36 33 32 32 30 30 29 28 25 24
166 165 156 145 137 144 151 146 145 142 144 148 143 127 129 138 127 111 117 140 130 135 140 129 113 120 134 123 114 102 90 84 87 74 67 62 55 47 42 50 49 44 44 43 40 40 42 38 36 37 35 33 33 37 35 36 42 42 40 41 39 38 39 39 34 33 33 36 36 35 37 35 34 36 36 36 35 36 35 32 30 30 29 30 28 23 23